Time,TemperatureF,DewpointF,PressureIn,WindDirection,WindDirectionDegrees,WindSpeedMPH,WindSpeedGustMPH,Humidity,HourlyPrecipIn,Conditions,Clouds,dailyrainin,SoftwareType,DateUTC
2013-07-11 08:33:00,67.6,67.0,30.03,WSW,244,0.0,0.0,98,0.00,,-RA,0.00,VWS V14.00,2013-07-11 12:33:00,
2013-07-11 08:38:00,67.6,67.0,30.03,SW,234,0.0,0.0,98,0.00,,-RA,0.00,VWS V14.00,2013-07-11 12:38:00,
2013-07-11 08:43:00,67.7,67.2,30.03,WSW,248,0.0,0.0,98,0.00,,-RA,0.00,VWS V14.00,2013-07-11 12:43:00,
2013-07-11 08:49:00,67.9,67.3,30.03,NW,306,0.0,0.0,98,0.00,,OVC019,0.00,VWS V14.00,2013-07-11 12:49:00,
2013-07-11 08:54:00,67.9,67.3,30.03,NW,306,0.0,0.0,98,0.00,,OVC019,0.00,VWS V14.00,2013-07-11 12:54:00,
2013-07-11 08:59:00,68.1,67.5,30.03,NW,306,0.0,0.0,98,0.00,,OVC019,0.00,VWS V14.00,2013-07-11 12:59:00,
2013-07-11 09:04:00,68.5,67.9,30.03,NW,306,0.0,0.0,98,0.00,,OVC017,0.00,VWS V14.00,2013-07-11 13:04:00,
2013-07-11 09:09:00,68.7,68.1,30.03,NW,306,0.0,0.0,98,0.00,,OVC017,0.00,VWS V14.00,2013-07-11 13:09:00,
2013-07-11 09:15:00,68.8,68.3,30.03,NW,306,0.0,0.0,98,0.00,,OVC017,0.00,VWS V14.00,2013-07-11 13:15:00,
2013-07-11 09:20:00,68.8,68.3,30.03,NW,306,0.0,0.0,98,0.00,,OVC017,0.00,VWS V14.00,2013-07-11 13:20:00,
2013-07-11 09:25:00,69.0,68.5,30.03,NW,306,0.0,0.0,98,0.00,,OVC017,0.00,VWS V14.00,2013-07-11 13:25:00,
2013-07-11 09:30:00,69.0,68.5,30.03,NW,306,2.5,2.7,98,0.00,,OVC017,0.00,VWS V14.00,2013-07-11 13:30:00,
2013-07-11 09:35:00,69.0,68.5,30.03,NW,306,0.0,0.0,98,0.00,,OVC017,0.00,VWS V14.00,2013-07-11 13:35:00,
2013-07-11 09:40:00,69.2,68.6,30.03,NW,306,0.0,0.0,98,0.00,,OVC017,0.00,VWS V14.00,2013-07-11 13:40:00,
2013-07-11 09:45:00,69.4,68.8,30.03,WNW,293,0.0,0.0,98,0.00,,OVC017,0.00,VWS V14.00,2013-07-11 13:45:00,
2013-07-11 09:50:00,69.6,69.0,30.03,South,186,0.0,0.0,98,0.00,,OVC014,0.00,VWS V14.00,2013-07-11 13:50:00,
2013-07-11 09:55:00,70.0,69.4,30.03,NNW,334,0.0,2.7,98,0.00,,OVC014,0.00,VWS V14.00,2013-07-11 13:55:00,
2013-07-11 10:00:00,70.3,69.8,30.03,West,266,2.5,3.2,98,0.00,,OVC014,0.00,VWS V14.00,2013-07-11 14:00:00,
2013-07-11 10:06:00,70.3,69.8,30.03,SE,141,2.5,3.2,98,0.00,,OVC014,0.00,VWS V14.00,2013-07-11 14:06:00,
2013-07-11 10:11:00,70.7,70.1,30.03,West,273,2.5,3.2,98,0.00,,OVC014,0.00,VWS V14.00,2013-07-11 14:11:00,
2013-07-11 10:16:00,70.9,70.3,30.03,SSW,197,0.0,3.2,98,0.00,,OVC016,0.00,VWS V14.00,2013-07-11 14:16:00,
2013-07-11 10:21:00,70.9,70.3,30.03,SSW,197,0.0,0.0,98,0.00,,OVC016,0.00,VWS V14.00,2013-07-11 14:21:00,
2013-07-11 10:26:00,71.1,70.5,30.03,SSW,197,0.0,0.0,98,0.00,,OVC016,0.00,VWS V14.00,2013-07-11 14:26:00,
2013-07-11 10:31:00,71.1,70.5,30.03,East,101,0.0,0.0,98,0.00,,OVC016,0.00,VWS V14.00,2013-07-11 14:31:00,
2013-07-11 10:36:00,71.3,70.7,30.03,WSW,238,0.0,0.0,98,0.00,,OVC016,0.00,VWS V14.00,2013-07-11 14:36:00,
2013-07-11 10:41:00,71.6,71.0,30.03,WSW,238,0.0,0.0,98,0.00,,OVC016,0.00,VWS V14.00,2013-07-11 14:41:00,
2013-07-11 10:46:00,72.0,69.6,30.03,SW,234,0.0,0.0,92,0.00,,OVC021,0.00,VWS V14.00,2013-07-11 14:46:00,
2013-07-11 10:51:00,72.0,70.2,30.03,East,83,0.0,0.0,94,0.00,,OVC021,0.00,VWS V14.00,2013-07-11 14:51:00,
2013-07-11 10:56:00,72.0,70.5,30.03,East,83,0.0,0.0,95,0.00,,OVC021,0.00,VWS V14.00,2013-07-11 14:56:00,
2013-07-11 11:02:00,72.0,70.5,30.03,East,83,0.0,0.0,95,0.00,,OVC021,0.00,VWS V14.00,2013-07-11 15:02:00,
2013-07-11 11:07:00,72.2,70.4,30.03,SSW,199,2.5,2.7,94,0.00,,OVC021,0.00,VWS V14.00,2013-07-11 15:07:00,
2013-07-11 11:12:00,72.4,70.2,30.03,ENE,77,0.0,3.2,93,0.00,,OVC021,0.00,VWS V14.00,2013-07-11 15:12:00,
2013-07-11 11:17:00,72.6,70.4,30.03,East,91,0.0,0.0,93,0.00,,OVC023,0.00,VWS V14.00,2013-07-11 15:17:00,
2013-07-11 11:22:00,72.8,70.3,30.03,East,91,0.0,0.0,92,0.00,,OVC023,0.00,VWS V14.00,2013-07-11 15:22:00,
2013-07-11 11:27:00,73.1,70.3,30.03,NNW,330,0.0,3.2,91,0.00,,OVC023,0.00,VWS V14.00,2013-07-11 15:27:00,
2013-07-11 11:33:00,73.3,69.9,30.03,NNW,336,3.0,3.8,89,0.00,,OVC024,0.00,VWS V14.00,2013-07-11 15:33:00,
2013-07-11 11:38:00,73.3,69.9,30.03,NNW,340,3.0,3.2,89,0.00,,OVC024,0.00,VWS V14.00,2013-07-11 15:38:00,
2013-07-11 11:43:00,73.3,69.5,30.03,East,101,0.0,3.8,88,0.00,,OVC024,0.00,VWS V14.00,2013-07-11 15:43:00,
2013-07-11 11:48:00,73.5,69.7,30.03,SW,220,0.0,2.7,88,0.00,,OVC024,0.00,VWS V14.00,2013-07-11 15:48:00,
2013-07-11 11:53:00,73.7,70.2,30.03,SE,137,3.0,3.2,89,0.00,,OVC024,0.00,VWS V14.00,2013-07-11 15:53:00,
2013-07-11 11:58:00,73.9,70.1,30.03,NW,304,0.0,3.2,88,0.00,,OVC024,0.00,VWS V14.00,2013-07-11 15:58:00,
2013-07-11 12:03:00,74.4,70.3,30.03,SSW,207,3.9,6.4,87,0.00,,OVC024,0.00,VWS V14.00,2013-07-11 16:03:00,
2013-07-11 12:08:00,75.0,70.5,30.03,NE,48,2.5,2.7,86,0.00,,OVC024,0.00,VWS V14.00,2013-07-11 16:08:00,
2013-07-11 12:13:00,75.3,70.2,30.03,SW,217,3.0,4.3,84,0.00,,OVC024,0.00,VWS V14.00,2013-07-11 16:13:00,
2013-07-11 12:18:00,75.3,69.1,30.03,NNW,329,3.0,4.3,81,0.00,,OVC024,0.00,VWS V14.00,2013-07-11 16:18:00,
2013-07-11 12:23:00,75.5,68.6,30.03,SE,139,3.9,4.3,79,0.00,,OVC024,0.00,VWS V14.00,2013-07-11 16:23:00,
2013-07-11 12:28:00,75.5,68.2,30.03,ENE,61,0.0,3.2,78,0.00,,OVC024,0.00,VWS V14.00,2013-07-11 16:28:00,
2013-07-11 12:33:00,75.7,67.6,30.03,South,175,0.0,2.7,76,0.00,,OVC042,0.00,VWS V14.00,2013-07-11 16:33:00,
2013-07-11 12:39:00,76.1,68.4,30.03,SSW,193,0.0,3.8,77,0.00,,OVC042,0.00,VWS V14.00,2013-07-11 16:39:00,
2013-07-11 12:44:00,77.0,68.9,30.03,SSE,160,3.9,7.5,76,0.00,,OVC042,0.00,VWS V14.00,2013-07-11 16:44:00,
2013-07-11 12:49:00,77.6,67.8,30.03,SSW,204,4.4,4.8,72,0.00,,OVC042,0.00,VWS V14.00,2013-07-11 16:49:00,
2013-07-11 12:54:00,77.2,65.0,30.03,NNE,32,0.0,2.7,66,0.00,,OVC042,0.00,VWS V14.00,2013-07-11 16:54:00,
2013-07-11 12:59:00,77.4,66.8,30.03,South,170,3.4,4.8,70,0.00,,OVC042,0.00,VWS V14.00,2013-07-11 16:59:00,
2013-07-11 13:04:00,77.6,67.8,30.00,SSE,153,0.0,4.3,72,0.00,,OVC040,0.00,VWS V14.00,2013-07-11 17:04:00,
2013-07-11 13:09:00,77.4,66.8,30.00,SSE,165,0.0,0.0,70,0.00,,OVC040,0.00,VWS V14.00,2013-07-11 17:09:00,
2013-07-11 13:14:00,77.4,66.8,30.00,WSW,240,0.0,4.3,70,0.00,,OVC040,0.00,VWS V14.00,2013-07-11 17:14:00,
2013-07-11 13:19:00,77.0,66.9,30.00,NNW,330,4.4,4.8,71,0.00,,OVC040,0.00,VWS V14.00,2013-07-11 17:19:00,
2013-07-11 13:24:00,77.4,65.6,30.00,NW,317,3.0,3.2,67,0.00,,OVC040,0.00,VWS V14.00,2013-07-11 17:24:00,
2013-07-11 13:29:00,77.4,66.8,30.00,WNW,300,2.5,3.8,70,0.00,,OVC040,0.00,VWS V14.00,2013-07-11 17:29:00,
2013-07-11 13:35:00,77.2,67.1,30.00,NNE,24,0.0,4.8,71,0.00,,OVC040,0.00,VWS V14.00,2013-07-11 17:35:00,
2013-07-11 13:40:00,77.0,66.5,30.00,WNW,301,2.5,2.7,70,0.00,,OVC040,0.00,VWS V14.00,2013-07-11 17:40:00,
2013-07-11 13:45:00,77.2,67.9,30.00,NNW,336,0.0,3.8,73,0.00,,OVC040,0.00,VWS V14.00,2013-07-11 17:45:00,
2013-07-11 13:50:00,77.2,68.7,30.00,NNW,348,3.4,3.8,75,0.00,,OVC050,0.00,VWS V14.00,2013-07-11 17:50:00,
2013-07-11 13:55:00,77.2,68.7,30.00,NW,315,0.0,0.0,75,0.00,,OVC050,0.00,VWS V14.00,2013-07-11 17:55:00,
2013-07-11 14:00:00,77.0,68.9,30.00,NNW,333,2.5,2.7,76,0.00,,OVC050,0.00,VWS V14.00,2013-07-11 18:00:00,
2013-07-11 14:06:00,77.0,68.5,30.00,NNW,344,3.0,4.3,75,0.00,,OVC055,0.00,VWS V14.00,2013-07-11 18:06:00,
2013-07-11 14:11:00,77.0,68.5,30.00,NNW,334,6.4,7.0,75,0.00,,OVC055,0.00,VWS V14.00,2013-07-11 18:11:00,
2013-07-11 14:16:00,76.5,67.6,30.00,NNW,339,2.5,2.7,74,0.00,,OVC055,0.00,VWS V14.00,2013-07-11 18:16:00,
2013-07-11 14:21:00,76.3,67.8,30.00,NNW,339,0.0,2.7,75,0.00,,OVC055,0.00,VWS V14.00,2013-07-11 18:21:00,
2013-07-11 14:27:00,75.9,67.8,30.00,NNW,339,2.5,2.7,76,0.00,,OVC055,0.00,VWS V14.00,2013-07-11 18:27:00,
2013-07-11 14:32:00,75.5,67.1,30.00,East,79,0.0,3.8,75,0.02,,OVC055,0.02,VWS V14.00,2013-07-11 18:32:00,
2013-07-11 14:37:00,75.0,66.5,30.00,East,79,2.5,2.7,75,0.02,,OVC055,0.02,VWS V14.00,2013-07-11 18:37:00,
2013-07-11 14:42:00,74.6,66.5,30.00,East,79,3.0,3.2,76,0.02,,OVC055,0.02,VWS V14.00,2013-07-11 18:42:00,
2013-07-11 14:47:00,74.4,67.1,30.00,East,79,0.0,2.7,78,0.02,,OVC055,0.02,VWS V14.00,2013-07-11 18:47:00,
2013-07-11 14:53:00,74.4,68.2,30.00,South,178,3.0,4.3,81,0.02,,OVC055,0.02,VWS V14.00,2013-07-11 18:53:00,
2013-07-11 14:58:00,74.6,68.4,30.00,SE,142,3.9,4.3,81,0.02,,OVC055,0.02,VWS V14.00,2013-07-11 18:58:00,
2013-07-11 15:03:00,74.6,68.4,30.00,SE,136,3.0,4.3,81,0.02,,OVC055,0.02,VWS V14.00,2013-07-11 19:03:00,
2013-07-11 15:08:00,74.2,68.0,30.00,SE,128,3.4,4.3,81,0.02,,OVC055,0.02,VWS V14.00,2013-07-11 19:08:00,
2013-07-11 15:13:00,74.1,68.2,30.00,SE,139,3.0,3.8,82,0.02,,OVC055,0.02,VWS V14.00,2013-07-11 19:13:00,
2013-07-11 15:18:00,73.9,69.4,30.00,SE,124,2.5,3.2,86,0.02,,OVC055,0.02,VWS V14.00,2013-07-11 19:18:00,
2013-07-11 15:23:00,73.9,70.4,30.00,ESE,112,3.4,3.8,89,0.02,,OVC055,0.02,VWS V14.00,2013-07-11 19:23:00,
2013-07-11 15:29:00,73.7,70.6,30.00,ESE,104,0.0,4.3,90,0.02,,OVC055,0.02,VWS V14.00,2013-07-11 19:29:00,
2013-07-11 15:34:00,73.3,69.9,30.00,East,85,2.5,3.2,89,0.00,,BKN060,0.02,VWS V14.00,2013-07-11 19:34:00,
2013-07-11 15:39:00,73.3,69.9,30.00,East,85,0.0,3.2,89,0.00,,BKN060,0.02,VWS V14.00,2013-07-11 19:39:00,
2013-07-11 15:44:00,73.3,69.9,30.00,ESE,115,2.5,3.2,89,0.00,,BKN060,0.02,VWS V14.00,2013-07-11 19:44:00,
2013-07-11 15:49:00,73.5,70.4,29.97,SSE,149,3.0,3.2,90,0.00,,BKN060,0.02,VWS V14.00,2013-07-11 19:49:00,
2013-07-11 15:54:00,73.5,70.7,29.97,SSE,149,0.0,2.7,91,0.00,,BKN060,0.02,VWS V14.00,2013-07-11 19:54:00,
2013-07-11 15:59:00,73.5,70.7,29.97,ESE,109,3.0,3.2,91,0.00,,BKN060,0.02,VWS V14.00,2013-07-11 19:59:00,
2013-07-11 16:05:00,73.7,70.6,29.97,ESE,109,0.0,0.0,90,0.00,,FEW060,0.02,VWS V14.00,2013-07-11 20:05:00,
2013-07-11 16:10:00,73.9,71.1,29.97,ESE,109,2.5,2.7,91,0.00,,FEW060,0.02,VWS V14.00,2013-07-11 20:10:00,
2013-07-11 16:15:00,73.9,71.7,29.97,ESE,109,0.0,0.0,93,0.00,,FEW060,0.02,VWS V14.00,2013-07-11 20:15:00,
2013-07-11 16:20:00,73.9,71.7,29.97,ESE,109,0.0,0.0,93,0.00,,FEW060,0.02,VWS V14.00,2013-07-11 20:20:00,
2013-07-11 16:25:00,73.9,71.7,29.97,ESE,109,0.0,0.0,93,0.00,,FEW060,0.02,VWS V14.00,2013-07-11 20:25:00,
2013-07-11 16:30:00,74.1,71.9,29.97,NNW,334,0.0,0.0,93,0.01,,FEW060,0.03,VWS V14.00,2013-07-11 20:30:00,
2013-07-11 16:35:00,74.1,71.6,29.97,NNW,334,0.0,0.0,92,0.01,,FEW060,0.03,VWS V14.00,2013-07-11 20:35:00,
2013-07-11 16:40:00,74.1,71.9,29.97,NNW,334,0.0,0.0,93,0.01,,FEW060,0.03,VWS V14.00,2013-07-11 20:40:00,
2013-07-11 16:45:00,73.9,71.7,29.97,NNW,335,3.0,4.8,93,0.01,,FEW060,0.03,VWS V14.00,2013-07-11 20:45:00,
2013-07-11 16:50:00,73.9,71.7,29.97,NNW,329,0.0,0.0,93,0.01,,OVC032,0.03,VWS V14.00,2013-07-11 20:50:00,
2013-07-11 16:55:00,73.9,71.7,29.97,NNW,329,0.0,0.0,93,0.02,,OVC032,0.04,VWS V14.00,2013-07-11 20:55:00,
2013-07-11 17:01:00,73.9,71.7,29.97,NNW,339,4.4,4.8,93,0.02,,OVC032,0.04,VWS V14.00,2013-07-11 21:01:00,
2013-07-11 17:06:00,73.7,71.5,29.97,North,4,0.0,3.2,93,0.02,,OVC060,0.04,VWS V14.00,2013-07-11 21:06:00,
2013-07-11 17:11:00,73.7,71.8,29.97,North,3,0.0,0.0,94,0.02,,OVC060,0.04,VWS V14.00,2013-07-11 21:11:00,
2013-07-11 17:16:00,73.7,71.8,29.97,NW,323,3.4,4.8,94,0.02,,OVC060,0.04,VWS V14.00,2013-07-11 21:16:00,
2013-07-11 17:21:00,73.9,71.7,29.97,NW,323,0.0,0.0,93,0.02,,OVC060,0.04,VWS V14.00,2013-07-11 21:21:00,
2013-07-11 17:26:00,73.7,71.5,29.97,NW,323,2.5,2.7,93,0.02,,OVC060,0.04,VWS V14.00,2013-07-11 21:26:00,
2013-07-11 17:31:00,73.3,71.5,29.97,NW,323,0.0,2.7,94,0.02,,OVC060,0.04,VWS V14.00,2013-07-11 21:31:00,
2013-07-11 17:36:00,73.5,72.3,29.97,NNW,334,0.0,3.8,96,0.01,,OVC060,0.04,VWS V14.00,2013-07-11 21:36:00,
2013-07-11 17:41:00,73.5,72.3,29.97,NW,324,3.4,3.8,96,0.01,,OVC060,0.04,VWS V14.00,2013-07-11 21:41:00,
2013-07-11 17:47:00,73.7,72.2,29.97,NNW,329,3.4,4.3,95,0.01,,OVC040,0.04,VWS V14.00,2013-07-11 21:47:00,
2013-07-11 17:52:00,73.5,72.0,29.97,NNW,337,6.9,7.5,95,0.02,,OVC040,0.05,VWS V14.00,2013-07-11 21:52:00,
2013-07-11 17:57:00,72.8,70.0,29.97,NNW,338,11.6,12.6,91,0.01,,OVC040,0.05,VWS V14.00,2013-07-11 21:57:00,
2013-07-11 18:02:00,71.8,68.4,29.97,NW,323,6.9,9.9,89,0.02,,OVC029,0.06,VWS V14.00,2013-07-11 22:02:00,
2013-07-11 18:08:00,71.4,68.4,29.97,NNW,332,6.9,9.1,90,0.04,,OVC029,0.08,VWS V14.00,2013-07-11 22:08:00,
2013-07-11 18:13:00,70.3,66.3,29.97,NNW,344,5.9,9.1,87,0.11,,OVC029,0.15,VWS V14.00,2013-07-11 22:13:00,
2013-07-11 18:18:00,70.2,67.1,29.97,NNW,348,3.0,5.9,90,0.14,,OVC029,0.18,VWS V14.00,2013-07-11 22:18:00,
2013-07-11 18:23:00,70.2,68.0,29.97,North,3,5.9,9.1,93,0.14,,OVC029,0.18,VWS V14.00,2013-07-11 22:23:00,
2013-07-11 18:29:00,70.0,68.5,29.97,North,350,6.4,7.0,95,0.14,,OVC029,0.18,VWS V14.00,2013-07-11 22:29:00,
2013-07-11 18:34:00,69.8,68.3,29.97,NNW,335,2.5,4.8,95,0.16,,OVC029,0.20,VWS V14.00,2013-07-11 22:34:00,
2013-07-11 18:39:00,69.6,68.1,29.97,East,97,2.5,2.7,95,0.19,,OVC029,0.23,VWS V14.00,2013-07-11 22:39:00,
2013-07-11 18:44:00,69.6,68.4,29.97,East,97,0.0,0.0,96,0.20,,OVC029,0.24,VWS V14.00,2013-07-11 22:44:00,
2013-07-11 18:49:00,69.6,68.7,29.97,East,97,0.0,0.0,97,0.20,,OVC029,0.24,VWS V14.00,2013-07-11 22:49:00,
2013-07-11 18:55:00,69.6,68.7,29.97,East,97,0.0,0.0,97,0.19,,OVC029,0.24,VWS V14.00,2013-07-11 22:55:00,
2013-07-11 19:00:00,69.6,68.7,29.97,East,97,0.0,2.7,97,0.18,,OVC029,0.24,VWS V14.00,2013-07-11 23:00:00,
2013-07-11 19:05:00,69.6,68.7,29.97,East,97,0.0,0.0,97,0.18,,SCT027,0.24,VWS V14.00,2013-07-11 23:05:00,
2013-07-11 19:10:00,69.4,68.5,29.97,East,97,0.0,0.0,97,0.15,,SCT027,0.24,VWS V14.00,2013-07-11 23:10:00,
2013-07-11 19:15:00,69.6,69.0,30.00,East,97,0.0,2.7,98,0.09,,SCT027,0.24,VWS V14.00,2013-07-11 23:15:00,
2013-07-11 19:21:00,69.6,69.0,30.00,East,97,0.0,0.0,98,0.06,,SCT027,0.24,VWS V14.00,2013-07-11 23:21:00,
2013-07-11 19:26:00,69.6,69.0,30.00,East,97,0.0,0.0,98,0.06,,SCT027,0.24,VWS V14.00,2013-07-11 23:26:00,
2013-07-11 19:31:00,69.6,69.0,30.00,East,97,2.5,2.7,98,0.06,,SCT027,0.24,VWS V14.00,2013-07-11 23:31:00,
2013-07-11 19:36:00,69.8,69.2,30.00,East,97,0.0,0.0,98,0.02,,SCT027,0.24,VWS V14.00,2013-07-11 23:36:00,
2013-07-11 19:41:00,70.0,69.4,30.00,East,97,0.0,0.0,98,0.01,,SCT027,0.24,VWS V14.00,2013-07-11 23:41:00,
2013-07-11 19:46:00,70.2,69.6,29.97,East,97,0.0,2.7,98,0.00,,SCT027,0.24,VWS V14.00,2013-07-11 23:46:00,
2013-07-11 19:51:00,70.2,69.6,29.97,East,97,0.0,0.0,98,0.00,,SCT027,0.24,VWS V14.00,2013-07-11 23:51:00,
2013-07-11 19:57:00,70.2,69.6,29.97,East,97,0.0,0.0,98,0.00,,SCT027,0.24,VWS V14.00,2013-07-11 23:57:00,
2013-07-11 20:02:00,70.2,69.6,29.97,East,97,0.0,0.0,98,0.00,,CLR,0.24,VWS V14.00,2013-07-12 00:02:00,
2013-07-11 20:08:00,70.0,69.4,29.97,East,97,0.0,0.0,98,0.00,,CLR,0.24,VWS V14.00,2013-07-12 00:08:00,
2013-07-11 20:13:00,70.0,69.4,29.97,East,97,0.0,0.0,98,0.00,,CLR,0.24,VWS V14.00,2013-07-12 00:13:00,
2013-07-11 20:18:00,70.2,69.6,29.97,East,97,0.0,0.0,98,0.00,,CLR,0.24,VWS V14.00,2013-07-12 00:18:00,
2013-07-11 20:23:00,70.0,69.4,29.97,East,97,0.0,0.0,98,0.00,,CLR,0.24,VWS V14.00,2013-07-12 00:23:00,
2013-07-11 20:29:00,70.0,69.4,29.97,East,97,0.0,0.0,98,0.00,,CLR,0.24,VWS V14.00,2013-07-12 00:29:00,
2013-07-11 20:34:00,69.8,69.2,29.97,East,97,0.0,0.0,98,0.00,,CLR,0.24,VWS V14.00,2013-07-12 00:34:00,
2013-07-11 20:39:00,69.6,69.0,29.97,East,97,0.0,0.0,98,0.00,,CLR,0.24,VWS V14.00,2013-07-12 00:39:00,
2013-07-11 20:44:00,69.6,69.0,29.97,East,97,0.0,2.7,98,0.00,,CLR,0.24,VWS V14.00,2013-07-12 00:44:00,
2013-07-11 20:49:00,69.6,69.0,30.00,East,97,0.0,0.0,98,0.00,,CLR,0.24,VWS V14.00,2013-07-12 00:49:00,
2013-07-11 20:54:00,69.6,69.0,30.00,East,97,0.0,0.0,98,0.00,,CLR,0.24,VWS V14.00,2013-07-12 00:54:00,
2013-07-11 21:00:00,69.4,68.8,30.00,East,97,0.0,0.0,98,0.00,,CLR,0.24,VWS V14.00,2013-07-12 01:00:00,
2013-07-11 21:05:00,69.4,68.8,29.97,East,97,0.0,0.0,98,0.00,,FEW014,0.24,VWS V14.00,2013-07-12 01:05:00,
2013-07-11 21:10:00,69.2,68.6,29.97,ESE,113,3.0,3.2,98,0.00,,FEW014,0.24,VWS V14.00,2013-07-12 01:10:00,
2013-07-11 21:15:00,69.2,68.6,30.00,ESE,113,0.0,2.7,98,0.00,,FEW014,0.24,VWS V14.00,2013-07-12 01:15:00,
2013-07-11 21:20:00,69.0,68.5,30.00,WNW,289,3.9,4.3,98,0.00,,BKN014,0.24,VWS V14.00,2013-07-12 01:20:00,
2013-07-11 21:25:00,69.0,68.5,30.00,NW,309,0.0,0.0,98,0.00,,BKN014,0.24,VWS V14.00,2013-07-12 01:25:00,
2013-07-11 21:31:00,69.0,68.5,30.00,NW,309,0.0,0.0,98,0.00,,BKN014,0.24,VWS V14.00,2013-07-12 01:31:00,
2013-07-11 21:36:00,69.0,68.5,30.00,NW,309,2.5,2.7,98,0.00,,SCT014,0.24,VWS V14.00,2013-07-12 01:36:00,
2013-07-11 21:41:00,68.8,68.3,30.00,NW,309,0.0,0.0,98,0.00,,SCT014,0.24,VWS V14.00,2013-07-12 01:41:00,
2013-07-11 21:46:00,68.8,68.3,30.00,NW,309,0.0,0.0,98,0.00,,SCT014,0.24,VWS V14.00,2013-07-12 01:46:00,
2013-07-11 21:51:00,68.8,68.3,30.00,NW,309,0.0,0.0,98,0.00,,SCT014,0.24,VWS V14.00,2013-07-12 01:51:00,
2013-07-11 21:56:00,68.8,68.3,30.00,NW,309,0.0,0.0,98,0.00,,SCT014,0.24,VWS V14.00,2013-07-12 01:56:00,
2013-07-11 22:01:00,68.7,68.1,30.00,NW,309,0.0,0.0,98,0.00,,SCT014,0.24,VWS V14.00,2013-07-12 02:01:00,
2013-07-11 22:06:00,68.7,68.1,30.00,NW,309,0.0,0.0,98,0.00,,CLR,0.24,VWS V14.00,2013-07-12 02:06:00,
2013-07-11 22:11:00,68.7,68.1,30.00,NW,309,0.0,0.0,98,0.00,,CLR,0.24,VWS V14.00,2013-07-12 02:11:00,
2013-07-11 22:16:00,68.7,68.1,30.00,NW,309,0.0,0.0,98,0.00,,CLR,0.24,VWS V14.00,2013-07-12 02:16:00,
2013-07-11 22:21:00,68.7,68.1,30.00,NW,309,0.0,0.0,98,0.00,,CLR,0.24,VWS V14.00,2013-07-12 02:21:00,
2013-07-11 22:26:00,68.5,67.9,30.00,NW,309,0.0,0.0,98,0.00,,CLR,0.24,VWS V14.00,2013-07-12 02:26:00,
2013-07-11 22:32:00,68.5,67.9,30.00,NW,309,0.0,0.0,98,0.00,,CLR,0.24,VWS V14.00,2013-07-12 02:32:00,
2013-07-11 22:37:00,68.3,67.7,30.00,NW,309,0.0,0.0,98,0.00,,CLR,0.24,VWS V14.00,2013-07-12 02:37:00,
2013-07-11 22:42:00,68.3,67.7,30.00,NW,309,0.0,0.0,98,0.00,,CLR,0.24,VWS V14.00,2013-07-12 02:42:00,
2013-07-11 22:47:00,68.1,67.5,30.00,NW,309,0.0,0.0,98,0.00,,CLR,0.24,VWS V14.00,2013-07-12 02:47:00,
2013-07-11 22:52:00,68.1,67.5,30.00,NW,309,0.0,0.0,98,0.00,,CLR,0.24,VWS V14.00,2013-07-12 02:52:00,
2013-07-11 22:57:00,67.9,67.3,30.00,NW,309,0.0,0.0,98,0.00,,CLR,0.24,VWS V14.00,2013-07-12 02:57:00,
2013-07-11 23:02:00,67.9,67.3,30.00,NE,51,0.0,6.4,98,0.00,,FEW013,0.24,VWS V14.00,2013-07-12 03:02:00,
2013-07-11 23:07:00,67.9,67.3,30.00,NE,51,0.0,0.0,98,0.00,,FEW013,0.24,VWS V14.00,2013-07-12 03:07:00,
2013-07-11 23:12:00,67.7,67.2,30.00,NE,51,0.0,0.0,98,0.00,,FEW013,0.24,VWS V14.00,2013-07-12 03:12:00,
2013-07-11 23:17:00,67.7,67.2,30.00,NE,51,0.0,0.0,98,0.00,,BKN013,0.24,VWS V14.00,2013-07-12 03:17:00,
2013-07-11 23:23:00,67.7,67.2,30.00,NE,51,0.0,0.0,98,0.00,,BKN013,0.24,VWS V14.00,2013-07-12 03:23:00,
2013-07-11 23:28:00,67.6,67.0,30.00,NE,51,0.0,0.0,98,0.00,,BKN013,0.24,VWS V14.00,2013-07-12 03:28:00,
2013-07-11 23:33:00,67.6,67.0,30.00,South,185,0.0,0.0,98,0.00,,BKN013,0.24,VWS V14.00,2013-07-12 03:33:00,
2013-07-11 23:38:00,67.6,67.0,30.00,South,185,0.0,0.0,98,0.00,,BKN013,0.24,VWS V14.00,2013-07-12 03:38:00,
2013-07-11 23:44:00,67.4,66.8,30.00,SSE,163,0.0,0.0,98,0.00,,BKN013,0.24,VWS V14.00,2013-07-12 03:44:00,
2013-07-11 23:49:00,67.4,66.8,30.00,SSE,163,0.0,0.0,98,0.00,,BKN070,0.24,VWS V14.00,2013-07-12 03:49:00,
2013-07-11 23:54:00,67.4,66.8,30.00,SSE,163,0.0,0.0,98,0.00,,BKN070,0.24,VWS V14.00,2013-07-12 03:54:00,
2013-07-11 23:59:00,67.4,66.8,30.00,SSE,163,0.0,0.0,98,0.00,,BKN070,0.24,VWS V14.00,2013-07-12 03:59:00,